Voltar ao catálogo

STARLINK-34366

AtivoComunicaçõesVLEO
NORAD 64281·PAYLOAD·🇺🇸 United States

Lançado Jun 4, 2025 de Vandenberg Space Force Base

Loading…

Próximas Passagens (próximas 24 horas)

TLE

AtualizadoSource: CelesTrak SupGP

Época: Sep 14, 2026, 20:44 UTC

1 64281C 25120AB  26257.86437500 -.00012898  00000+0 -38125-3 0  2574
2 64281  53.1586 315.9524 0001178  81.5583  91.9948 15.34382654    19

Acompanhe STARLINK-34366 em tempo real com AllMySat

Download on the App Store